GW0828 Weather Reports


Display with metric or nautical units.
time (UTC)temp
F
wind
direction
speed
MPH
gust
MPH
rain 1hr
in
rain 24hr
in
rain mn
in
humidity
%
barometer
mb
20260510220045 66 98 3.0 9.0 0.00 0.20 0.20 43 1022.7
20260510215537 67 119 2.0 11.0 0.00 0.20 0.20 44 1022.8
20260510215037 66 170 4.0 11.0 0.00 0.20 0.20 40 1022.8
20260510214554 67 135 6.0 11.0 0.00 0.20 0.20 39 1022.8
20260510214038 67 127 3.0 9.0 0.00 0.20 0.20 44 1022.9
20260510213536 67 175 2.0 12.0 0.00 0.20 0.20 45 1023.0
20260510213103 67 123 3.0 12.0 0.00 0.20 0.20 44 1023.0
20260510212537 66 83 5.0 9.0 0.00 0.20 0.20 46 1023.0
20260510212037 66 89 4.0 9.0 0.00 0.20 0.20 47 1023.1
20260510211549 65 69 3.0 10.0 0.00 0.20 0.20 46 1023.1
20260510211039 65 87 3.0 12.0 0.00 0.20 0.20 44 1023.1
20260510210536 65 66 3.0 12.0 0.00 0.20 0.20 46 1023.2
20260510210048 65 78 8.0 12.0 0.00 0.20 0.20 44 1023.2
20260510205536 66 112 3.0 10.0 0.00 0.20 0.20 43 1023.3
20260510205035 66 109 3.0 8.0 0.00 0.20 0.20 44 1023.4
20260510204549 65 192 4.0 8.0 0.00 0.20 0.20 48 1023.4
20260510204036 65 88 1.0 8.0 0.00 0.20 0.20 45 1023.5
20260510203537 66 102 3.0 8.0 0.00 0.20 0.20 46 1023.4
20260510203049 65 111 2.0 9.0 0.00 0.20 0.20 49 1023.4
20260510202536 65 137 3.0 9.0 0.00 0.20 0.20 47 1023.5
20260510202036 65 147 4.0 9.0 0.00 0.20 0.20 49 1023.6
20260510201552 64 100 4.0 9.0 0.00 0.20 0.20 47 1023.6
20260510201037 65 195 3.0 10.0 0.00 0.20 0.20 46 1023.6
20260510200537 64 90 5.0 10.0 0.00 0.20 0.20 48 1023.7
20260510200045 65 86 6.0 10.0 0.00 0.20 0.20 47 1023.8
20260510195537 65 119 3.0 9.0 0.00 0.20 0.20 47 1023.7
20260510195033 65 94 4.0 9.0 0.00 0.20 0.20 47 1023.8
20260510194558 65 179 2.0 8.0 0.00 0.20 0.20 49 1023.8
20260510194034 64 24 2.0 8.0 0.00 0.20 0.20 47 1023.8
20260510193537 65 20 1.0 9.0 0.00 0.20 0.20 47 1023.8
20260510193050 64 68 4.0 9.0 0.00 0.20 0.20 49 1023.9
20260510192537 64 99 3.0 10.0 0.00 0.20 0.20 47 1023.9
20260510192037 64 138 4.0 10.0 0.00 0.20 0.20 48 1024.0
20260510191555 64 92 3.0 7.0 0.00 0.20 0.20 46 1024.0
20260510191036 65 192 2.0 5.0 0.00 0.20 0.20 46 1024.1
20260510190537 64 0 1.0 8.0 0.00 0.20 0.20 50 1024.1
20260510190101 64 0 2.0 8.0 0.00 0.20 0.20 46 1024.1
20260510185537 63 119 1.0 6.0 0.00 0.20 0.20 57 1024.2
20260510185037 62 41 2.0 10.0 0.00 0.20 0.20 48 1024.3
20260510184551 63 189 3.0 10.0 0.00 0.20 0.20 45 1024.4
20260510184037 63 227 6.0 9.0 0.00 0.20 0.20 46 1024.4
20260510183537 64 239 2.0 6.0 0.00 0.20 0.20 51 1024.5
20260510183049 63 220 1.0 7.0 0.00 0.20 0.20 47 1024.5
20260510182539 61 7 3.0 10.0 0.00 0.20 0.20 50 1024.6
20260510182033 60 71 6.0 10.0 0.00 0.20 0.20 51 1024.6
20260510181548 61 77 2.0 7.0 0.00 0.20 0.20 51 1024.5
20260510181034 61 98 3.0 9.0 0.00 0.20 0.20 48 1024.6
20260510180538 61 92 3.0 9.0 0.00 0.20 0.20 48 1024.6
20260510180100 61 87 2.0 9.0 0.00 0.20 0.20 54 1024.7
20260510175533 60 81 1.0 9.0 0.00 0.20 0.20 54 1024.7
20260510175033 60 48 3.0 10.0 0.00 0.20 0.20 52 1024.8
20260510174549 61 93 2.0 10.0 0.00 0.20 0.20 56 1024.8
20260510174034 60 71 5.0 10.0 0.00 0.20 0.20 61 1024.8
20260510173533 61 83 3.0 10.0 0.00 0.20 0.20 55 1024.9
20260510173051 60 125 5.0 9.0 0.00 0.20 0.20 58 1024.9
20260510172537 60 101 3.0 8.0 0.00 0.20 0.20 57 1024.9
20260510172038 60 96 3.0 8.0 0.00 0.20 0.20 57 1025.0
20260510171559 60 100 2.0 5.0 0.00 0.20 0.20 52 1025.0
20260510171040 60 94 1.0 4.0 0.00 0.20 0.20 56 1025.0
20260510170538 60 176 0.0 4.0 0.00 0.20 0.20 59 1025.0
20260510170050 59 302 2.0 4.0 0.00 0.20 0.20 56 1025.1
20260510165538 58 140 0.0 5.0 0.00 0.20 0.20 61 1025.0
20260510165037 59 241 2.0 6.0 0.00 0.20 0.20 53 1025.1
20260510164605 60 260 1.0 8.0 0.00 0.20 0.20 56 1025.1
20260510164038 59 175 2.0 8.0 0.00 0.20 0.20 61 1025.1
20260510163538 59 0 2.0 8.0 0.00 0.20 0.20 63 1025.1
20260510163107 59 0 3.0 8.0 0.00 0.20 0.20 62 1025.2
20260510162538 58 139 2.0 7.0 0.00 0.20 0.20 63 1025.2
20260510162038 58 143 3.0 7.0 0.00 0.20 0.20 64 1025.1
20260510161553 58 203 2.0 6.0 0.00 0.20 0.20 66 1025.1
20260510161039 58 174 3.0 7.0 0.00 0.20 0.20 64 1025.2
20260510160538 57 183 2.0 7.0 0.00 0.20 0.20 68 1025.1
20260510160056 57 151 2.0 6.0 0.00 0.20 0.20 63 1025.1
20260510155538 58 129 3.0 6.0 0.00 0.20 0.20 68 1025.1
20260510155038 57 241 0.0 4.0 0.00 0.20 0.20 71 1025.0
20260510154554 57 0 1.0 4.0 0.00 0.20 0.20 66 1025.1
20260510154040 57 239 1.0 4.0 0.00 0.20 0.20 70 1025.1
20260510153538 56 250 1.0 4.0 0.00 0.20 0.20 70 1025.1
20260510153103 55 0 1.0 5.0 0.00 0.20 0.20 70 1025.0
20260510152542 55 0 1.0 5.0 0.00 0.20 0.20 68 1025.1
20260510152037 55 219 3.0 5.0 0.00 0.20 0.20 70 1025.2
20260510151618 55 183 1.0 5.0 0.00 0.20 0.20 73 1025.1
20260510151039 55 224 2.0 6.0 0.00 0.20 0.20 73 1025.1
20260510150539 54 187 2.0 8.0 0.00 0.20 0.20 74 1025.1
20260510150057 54 202 3.0 8.0 0.00 0.20 0.20 74 1025.1
20260510145538 54 250 2.0 7.0 0.00 0.20 0.20 76 1025.2
20260510145038 54 207 2.0 7.0 0.00 0.20 0.20 77 1025.2
20260510144559 53 239 2.0 7.0 0.00 0.20 0.20 76 1025.2
20260510144039 53 205 3.0 7.0 0.00 0.20 0.20 78 1025.3
20260510143538 53 239 3.0 7.0 0.00 0.20 0.20 79 1025.4
20260510143105 53 0 1.0 4.0 0.00 0.20 0.20 81 1025.4
20260510142538 52 6 2.0 5.0 0.00 0.20 0.20 82 1025.4
20260510142038 52 347 2.0 6.0 0.00 0.20 0.20 83 1025.4
20260510141555 51 347 3.0 8.0 0.00 0.20 0.20 84 1025.5
20260510141037 51 347 4.0 8.0 0.00 0.20 0.20 84 1025.4
20260510140540 50 347 2.0 8.0 0.00 0.20 0.20 86 1025.5
20260510140049 50 347 1.0 4.0 0.00 0.20 0.20 86 1025.4
20260510135538 50 347 2.0 5.0 0.00 0.20 0.20 86 1025.5
20260510135038 50 347 3.0 5.0 0.00 0.20 0.20 87 1025.4
20260510134547 50 347 2.0 5.0 0.00 0.20 0.20 88 1025.5
20260510134037 49 347 1.0 6.0 0.00 0.20 0.20 88 1025.6
20260510133537 49 347 3.0 6.0 0.00 0.20 0.20 88 1025.5
20260510133048 49 347 2.0 6.0 0.00 0.20 0.20 89 1025.5
20260510132538 49 347 2.0 6.0 0.00 0.20 0.20 89 1025.3
20260510132039 49 21 1.0 4.0 0.00 0.20 0.20 90 1025.3
20260510131557 48 30 2.0 4.0 0.00 0.20 0.20 90 1025.3
20260510131038 48 0 0.0 2.0 0.00 0.20 0.20 90 1025.2
20260510130540 48 31 0.0 2.0 0.00 0.20 0.20 91 1025.2
20260510130053 47 0 0.0 2.0 0.00 0.20 0.20 91 1025.1
20260510125538 47 0 0.0 1.0 0.01 0.20 0.20 91 1025.0
20260510125038 47 0 0.0 1.0 0.01 0.20 0.20 91 1025.0
20260510124557 46 0 0.0 0.0 0.01 0.20 0.20 91 1025.0
20260510124041 45 0 0.0 0.0 0.01 0.20 0.20 91 1025.1
20260510123538 45 0 0.0 0.0 0.01 0.20 0.20 91 1025.0
20260510123045 44 0 0.0 0.0 0.01 0.20 0.20 91 1024.9
20260510122537 44 0 0.0 1.0 0.01 0.20 0.20 90 1024.9
20260510122037 44 0 0.0 1.0 0.01 0.20 0.20 90 1024.9
20260510121548 43 347 0.0 1.0 0.01 0.20 0.20 90 1024.7
20260510121038 43 0 0.0 0.0 0.01 0.20 0.20 90 1024.7
20260510120538 43 0 0.0 0.0 0.01 0.20 0.20 90 1024.7
20260510120051 43 0 0.0 0.0 0.01 0.20 0.20 90 1024.8
20260510115538 43 0 0.0 0.0 0.00 0.19 0.19 90 1024.9
20260510115038 43 0 0.0 0.0 0.00 0.19 0.19 90 1024.8
20260510114548 43 0 0.0 1.0 0.00 0.19 0.19 90 1024.7
20260510114039 43 0 0.0 2.0 0.00 0.19 0.19 90 1024.8
20260510113538 43 0 0.0 2.0 0.00 0.19 0.19 89 1024.8
20260510113047 44 0 0.0 1.0 0.00 0.19 0.19 89 1024.8
20260510112538 44 0 0.0 1.0 0.00 0.19 0.19 89 1024.8
20260510112038 44 0 0.0 1.0 0.00 0.19 0.19 89 1024.8
20260510111547 44 0 0.0 4.0 0.00 0.19 0.19 89 1024.8
20260510111037 44 0 0.0 4.0 0.00 0.19 0.19 89 1024.8
20260510110538 44 347 1.0 4.0 0.00 0.19 0.19 89 1024.7
20260510110055 44 0 0.0 1.0 0.00 0.19 0.19 89 1024.6
20260510105538 44 0 0.0 3.0 0.00 0.19 0.19 89 1024.5
20260510105042 45 347 0.0 8.0 0.00 0.19 0.19 89 1024.4
20260510104551 45 347 1.0 11.0 0.00 0.19 0.19 89 1024.3
20260510104038 45 347 3.0 11.0 0.00 0.19 0.19 89 1024.1
20260510103538 45 347 4.0 11.0 0.00 0.19 0.19 89 1024.0
20260510103050 45 347 4.0 9.0 0.00 0.19 0.19 89 1024.0
20260510102538 45 347 3.0 8.0 0.01 0.19 0.19 89 1024.1
20260510102038 45 347 3.0 6.0 0.02 0.19 0.19 89 1024.2
20260510101548 46 347 2.0 5.0 0.02 0.19 0.19 89 1024.4
20260510101038 46 347 2.0 4.0 0.03 0.19 0.19 88 1024.4
20260510100538 46 347 2.0 4.0 0.04 0.19 0.19 89 1024.6
20260510100106 46 347 1.0 4.0 0.05 0.19 0.19 88 1024.7
20260510095538 46 347 0.0 3.0 0.07 0.19 0.19 88 1024.6
20260510095037 46 0 0.0 3.0 0.08 0.19 0.19 88 1024.6
20260510094555 46 347 1.0 3.0 0.09 0.19 0.19 88 1024.5
20260510094038 46 347 0.0 2.0 0.09 0.19 0.19 88 1024.5
20260510093538 47 0 0.0 2.0 0.09 0.19 0.19 88 1024.5
20260510093059 47 0 0.0 2.0 0.09 0.19 0.19 87 1024.5
20260510092537 47 0 0.0 3.0 0.08 0.18 0.18 88 1024.4
20260510092043 47 0 0.0 4.0 0.07 0.17 0.17 87 1024.5
20260510091551 47 347 1.0 4.0 0.07 0.17 0.17 87 1024.6
20260510091038 47 347 1.0 4.0 0.06 0.16 0.16 87 1024.6
20260510090538 47 347 1.0 3.0 0.05 0.15 0.15 85 1024.6
20260510090058 47 0 0.0 2.0 0.04 0.14 0.14 84 1024.6
20260510085540 47 0 0.0 3.0 0.02 0.12 0.12 84 1024.6
20260510085037 47 0 0.0 4.0 0.02 0.11 0.11 84 1024.5
20260510084608 47 347 2.0 6.0 0.01 0.10 0.10 84 1024.4
20260510084041 47 347 2.0 6.0 0.02 0.10 0.10 85 1024.4
20260510083538 47 347 3.0 6.0 0.02 0.10 0.10 86 1024.3
20260510083050 47 347 3.0 6.0 0.02 0.10 0.10 86 1024.1
20260510082537 47 347 4.0 5.0 0.02 0.10 0.10 87 1024.0
20260510082037 47 347 1.0 6.0 0.02 0.10 0.10 87 1023.8
20260510081558 47 347 1.0 6.0 0.02 0.10 0.10 87 1023.7
20260510081037 47 347 1.0 4.0 0.03 0.10 0.10 87 1023.8
20260510080538 47 347 1.0 4.0 0.05 0.10 0.10 88 1023.9
20260510080049 47 0 1.0 4.0 0.06 0.10 0.10 88 1023.9
20260510075538 48 347 1.0 4.0 0.08 0.10 0.10 88 1023.9
20260510075038 48 347 2.0 4.0 0.08 0.09 0.09 88 1023.9
20260510074557 48 347 1.0 3.0 0.09 0.09 0.09 88 1023.7
20260510074042 48 347 0.0 3.0 0.08 0.08 0.08 87 1023.8
20260510073537 48 0 0.0 2.0 0.08 0.08 0.08 87 1023.9
20260510073052 48 0 0.0 2.0 0.08 0.08 0.08 87 1023.9
20260510072538 48 0 0.0 3.0 0.08 0.08 0.08 87 1023.9
20260510072041 48 0 0.0 6.0 0.08 0.08 0.08 86 1023.9
20260510071551 48 347 2.0 6.0 0.08 0.08 0.08 86 1023.8
20260510071037 48 347 2.0 9.0 0.07 0.07 0.07 85 1023.6
20260510070537 48 347 2.0 9.0 0.05 0.05 0.05 85 1023.8
20260510070056 48 347 3.0 9.0 0.04 0.04 0.04 84 1023.9
20260510065538 48 347 4.0 9.0 0.02 0.02 0.02 84 1023.9
20260510065038 48 347 3.0 9.0 0.01 0.01 0.01 83 1024.0
20260510064551 48 347 3.0 8.0 0.00 0.00 0.00 82 1024.0
20260510064038 48 347 3.0 6.0 0.00 0.00 0.00 82 1024.0
20260510063538 48 347 3.0 8.0 0.00 0.00 0.00 82 1024.1
20260510063051 48 347 2.0 8.0 0.00 0.00 0.00 81 1023.8
20260510062538 48 347 1.0 6.0 0.00 0.00 0.00 81 1023.5
20260510062037 48 347 1.0 6.0 0.00 0.00 0.00 80 1023.4
20260510061547 48 347 2.0 6.0 0.00 0.00 0.00 80 1023.4
20260510061040 48 347 2.0 5.0 0.00 0.00 0.00 79 1023.2
20260510060538 48 347 2.0 11.0 0.00 0.00 0.00 78 1023.1
20260510060054 49 347 5.0 12.0 0.00 0.00 0.00 78 1023.1
20260510055537 49 347 5.0 12.0 0.00 0.00 0.00 78 1023.1
20260510055037 49 347 3.0 11.0 0.00 0.00 0.00 77 1023.0
20260510054543 49 347 3.0 8.0 0.00 0.00 0.00 77 1023.1
20260510054039 49 347 1.0 4.0 0.00 0.00 0.00 77 1023.1
20260510053538 49 0 1.0 4.0 0.00 0.00 0.00 76 1023.1
20260510053052 49 347 1.0 4.0 0.00 0.00 0.00 76 1023.1
20260510052538 49 0 2.0 6.0 0.00 0.00 0.00 76 1023.2
20260510052040 49 347 1.0 6.0 0.00 0.00 0.00 75 1023.1
20260510051550 50 347 2.0 6.0 0.00 0.00 0.00 74 1023.0
20260510051038 50 347 1.0 3.0 0.00 0.00 0.00 73 1023.1
20260510050537 50 347 0.0 3.0 0.00 0.00 0.00 72 1023.0
20260510050048 50 347 1.0 3.0 0.00 0.00 0.00 72 1023.0
20260510045539 50 347 1.0 3.0 0.00 0.00 0.00 71 1022.9
20260510045039 51 347 0.0 3.0 0.00 0.00 0.00 70 1022.9
20260510044556 51 347 1.0 3.0 0.00 0.00 0.00 69 1023.0
20260510044038 51 347 0.0 2.0 0.00 0.00 0.00 68 1023.1
20260510043537 51 0 0.0 3.0 0.00 0.00 0.00 67 1023.0
20260510043102 51 0 0.0 3.0 0.00 0.00 0.00 67 1022.9
20260510042538 51 347 0.0 6.0 0.00 0.00 0.00 67 1022.8
20260510042038 50 347 0.0 6.0 0.00 0.00 0.00 66 1022.9
20260510041550 50 347 1.0 6.0 0.00 0.00 0.00 67 1022.9
20260510041038 50 347 3.0 8.0 0.00 0.00 0.00 68 1022.6
20260510040540 50 347 3.0 8.0 0.00 0.00 0.00 68 1022.5
20260510040058 50 347 2.0 10.0 0.00 0.00 0.00 68 1022.4
20260510035538 50 347 5.0 11.0 0.00 0.00 0.00 68 1022.6
20260510035039 50 347 4.0 12.0 0.00 0.00 0.00 68 1022.6
20260510034548 51 347 2.0 14.0 0.00 0.00 0.00 67 1022.6
20260510034038 51 347 6.0 16.0 0.00 0.00 0.00 67 1022.3
20260510033537 51 347 6.0 16.0 0.00 0.00 0.00 67 1022.2
20260510033123 51 347 7.0 14.0 0.00 0.00 0.00 67 1022.3
20260510032538 51 347 6.0 14.0 0.00 0.00 0.00 67 1022.3
20260510032037 51 347 5.0 14.0 0.00 0.00 0.00 68 1022.5
20260510031603 50 347 5.0 14.0 0.00 0.00 0.00 68 1022.5
20260510031037 50 347 5.0 14.0 0.00 0.00 0.00 69 1022.3
20260510030538 50 347 5.0 19.0 0.00 0.00 0.00 69 1022.1
20260510030051 51 347 6.0 19.0 0.00 0.00 0.00 69 1021.8
20260510025538 51 347 5.0 18.0 0.00 0.00 0.00 69 1021.6
20260510025038 51 347 7.0 20.0 0.00 0.00 0.00 69 1021.3
20260510024548 51 347 6.0 21.0 0.00 0.00 0.00 69 1021.0
20260510024036 51 347 7.0 21.0 0.00 0.00 0.00 69 1020.8
20260510023538 51 347 11.0 21.0 0.00 0.00 0.00 68 1020.9
20260510023048 51 347 9.0 19.0 0.00 0.00 0.00 68 1021.0
20260510022538 51 347 7.0 18.0 0.00 0.00 0.00 68 1021.1
20260510022037 51 347 9.0 18.0 0.00 0.00 0.00 68 1020.8
20260510021550 52 347 7.0 19.0 0.00 0.00 0.00 67 1020.6
20260510021037 52 347 4.0 19.0 0.00 0.00 0.00 67 1020.9
20260510020537 52 347 7.0 21.0 0.00 0.00 0.00 67 1020.8
20260510020052 52 356 12.0 25.0 0.00 0.00 0.00 66 1020.2
20260510015539 52 356 12.0 25.0 0.00 0.00 0.00 67 1019.8
20260510015038 52 356 10.0 21.0 0.00 0.00 0.00 66 1020.2
20260510014550 52 352 7.0 20.0 0.00 0.00 0.00 66 1020.2
20260510014038 52 356 9.0 24.0 0.00 0.00 0.00 65 1020.0
20260510013539 52 352 7.0 24.0 0.00 0.00 0.00 65 1019.8
20260510013051 52 356 10.0 21.0 0.00 0.00 0.00 64 1019.5
20260510012540 53 356 10.0 28.0 0.00 0.00 0.00 64 1019.1
20260510012039 53 5 13.0 28.0 0.00 0.00 0.00 63 1019.3
20260510011549 53 356 13.0 29.0 0.00 0.00 0.00 65 1018.8
20260510011038 54 356 13.0 29.0 0.00 0.00 0.00 65 1018.8
20260510010538 54 4 8.0 23.0 0.00 0.00 0.00 66 1019.3
20260510010058 53 4 12.0 26.0 0.00 0.00 0.00 66 1019.1
20260510005538 54 356 8.0 26.0 0.00 0.00 0.00 67 1018.3
20260510005038 54 4 10.0 29.0 0.00 0.00 0.00 67 1018.3
20260510004552 54 358 12.0 29.0 0.00 0.00 0.00 67 1017.7
20260510004037 54 359 19.0 29.0 0.00 0.00 0.00 66 1017.0
20260510003537 54 4 13.0 30.0 0.00 0.00 0.00 66 1016.7
20260510003052 55 4 13.0 30.0 0.00 0.00 0.00 65 1016.4
20260510002539 55 356 18.0 32.0 0.00 0.00 0.00 65 1016.2
20260510002038 55 5 18.0 32.0 0.00 0.00 0.00 64 1016.4
20260510001548 55 356 14.0 32.0 0.00 0.00 0.00 63 1016.6
20260510001038 56 356 18.0 32.0 0.00 0.00 0.00 63 1016.3
20260510000540 56 357 13.0 29.0 0.00 0.00 0.00 61 1016.1
20260509235538 57 356 12.0 30.0 0.00 0.00 0.00 60 1015.8
20260509235037 58 356 17.0 35.0 0.00 0.00 0.00 58 1015.3
20260509234557 58 356 21.0 36.0 0.00 0.00 0.00 56 1015.1
20260509234037 59 356 19.0 36.0 0.00 0.00 0.00 55 1014.9
20260509233538 59 356 22.0 35.0 0.00 0.00 0.00 53 1014.5
20260509233051 60 356 20.0 31.0 0.00 0.00 0.00 51 1014.7
20260509232537 62 352 17.0 30.0 0.00 0.00 0.00 48 1014.7
20260509232038 67 332 15.0 30.0 0.00 0.00 0.00 39 1014.4
20260509231552 69 356 8.0 12.0 0.00 0.00 0.00 31 1013.8
20260509231037 69 9 5.0 10.0 0.00 0.00 0.00 31 1013.6
20260509230540 69 55 4.0 9.0 0.00 0.00 0.00 28 1013.2
20260509230048 69 23 2.0 9.0 0.00 0.00 0.00 31 1013.0
20260509225536 69 92 6.0 11.0 0.00 0.00 0.00 29 1013.0
20260509225037 69 89 6.0 12.0 0.00 0.00 0.00 31 1012.9
20260509224548 69 90 8.0 13.0 0.00 0.00 0.00 30 1012.9
20260509224038 69 85 7.0 13.0 0.00 0.00 0.00 30 1012.9
20260509223538 69 85 9.0 13.0 0.00 0.00 0.00 30 1012.8
20260509223054 69 85 7.0 12.0 0.00 0.00 0.00 30 1012.7
20260509222537 69 106 8.0 13.0 0.00 0.00 0.00 32 1012.7
20260509222038 69 72 8.0 16.0 0.00 0.00 0.00 32 1012.8
20260509221550 69 79 9.0 16.0 0.00 0.00 0.00 29 1012.8
20260509221038 69 85 8.0 15.0 0.00 0.00 0.00 30 1012.8
20260509220538 70 75 8.0 15.0 0.00 0.00 0.00 30 1012.9